Location: Newark
(33.4453°N, 112.0669°W)
Time: 22:21:23
(UTC+00:00)

LightSail 2 - Pass Details

Date: 25 January 2020
Orbit: 700 x 722 km, 24.0° (Epoch: 19 February)

Event Time Altitude Azimuth Distance (km) Brightness Sun altitude
Rises 02:27:08 0° 256° (WSW) 3,079 10.1 -19.9°
Reaches altitude 10° 02:29:56 10° 242° (WSW) 2,164 8.7 -20.5°
Maximum altitude 02:34:01 24° 189° (S) 1,436 6.9 -21.3°
Enters shadow 02:36:28 17° 151° (SSE) 1,741 6.9 -21.8°
